User: anonymous   Login
Location: Bucharest
(44.4268°N, 26.1025°E)
Time: 18:19:47
(UTC+03:00)
Language:

M-CUBED/EXP-1 PRIME - Orbit

View from above orbital plane
View from above orbital plane
View from above satellite
View from above satellite

Ground track
Ground track

The orbit data is extracted from the following two-line orbital elements,

1 37855U 11061F   22176.90573190  .00006934  00000-0  30553-3 0  9990
2 37855 101.7098 300.4527 0152651  37.0672 324.0971 15.12541814582511
Epoch (UTC): 25 June 2022 21:44:15
Eccentricity: 0.0152651
inclination: 101.7098°
perigee height: 423 km
apogee height: 634 km
right ascension of ascending node: 300.4527°
argument of perigee: 37.0672°
revolutions per day: 15.12541814
mean anomaly at epoch: 324.0971°
orbit number at epoch: 58251

The dashed part of the orbit path shows where the satellite is in the earth's shadow,  

DLR